[[{"header":{"parameterUnit":"m.s-1","parameterCategory":1,"la1":30.2991,"la2":30.254,"lo1":-89.0895,"lo2":-89.0444,"dy":0.0017,"dx":0.0017,"nx":28,"ny":28,"refTime":"2024-08-18T03:00:00:Z","depth":0,"parameterNumber":2,"parameterNumberName":"U-component_of_WINDS"},"data":[0,0,0,0,0,0,0,0,0,0,0,0,0,0,0,0,0,0,0,0,0,0,0,0,0,0,0,0,0,0,0,0,0,0,0,0,0,0,0,0,0,0,0,0,0,0,0,0,0,0,0,0,0,0,0,0,0,0,2.6574,2.6574,0,2.6652,2.6653,2.6654,2.6625,2.6623,2.6622,2.662,2.6701,2.6704,2.6708,0,0,0,0,0,0,0,0,0,0,0,0,0,2.6397,2.6401,2.6573,2.6574,2.6575,2.6652,2.6653,2.6654,2.6626,2.6623,2.6621,2.6619,2.6699,2.6704,2.6708,0,0,0,0,0,0,0,0,0,0,0,0,0,2.6475,2.6402,2.6573,2.657,2.6571,2.6652,2.6653,2.6654,2.6626,2.6623,2.6621,2.6618,2.6698,2.6703,2.6709,2.6797,0,0,2.6726,2.6729,0,0,0,0,0,0,0,0,2.647,2.6481,2.657,2.6571,2.6571,2.6626,2.662,2.6702,2.6627,2.6605,2.662,2.6617,2.6678,2.6685,2.6706,2.6801,2.6804,2.6727,2.673,2.6733,2.6734,0,0,0,0,0,0,0,2.6465,2.6478,2.6604,2.6571,2.6572,2.6565,2.6573,2.6636,2.6655,2.6607,2.6605,2.6615,2.6678,2.67,2.6707,2.6806,2.6727,2.6732,2.6735,2.6737,2.6975,2.6978,0,0,0,0,0,0,2.6459,2.6473,2.6602,2.6607,2.6513,2.657,2.6579,2.6611,2.6655,2.6659,2.6617,2.6613,2.6692,2.6701,2.671,2.6814,2.6733,2.6738,2.6741,2.6972,2.6975,2.6979,0,0,0,0,0,0,2.6456,2.6471,2.6599,2.654,2.6555,2.6576,2.6612,2.6614,2.6636,2.6662,2.6666,2.6636,2.669,2.6702,2.6775,2.6817,2.6741,2.6746,2.6969,2.6973,2.6977,2.7025,0,0,0,0,0,0,2.6451,2.647,2.6504,2.6541,2.6559,2.6663,2.6615,2.6618,2.6646,2.6642,2.6681,2.6685,2.6689,2.6767,2.6781,2.6823,2.675,2.6965,2.6971,2.6976,2.7019,2.703,2.7039,0,0,0,0,0,2.6445,2.6515,2.6506,2.6522,2.6602,2.6666,2.6676,2.6679,2.665,2.6684,2.67,2.6684,2.681,2.6775,2.679,2.6835,2.6962,2.6969,2.6975,2.7015,2.7028,2.7039,0,0,0,0,0,0,2.6483,2.652,2.651,2.6595,2.6627,2.6661,2.6704,2.6693,2.6734,2.6729,2.6731,2.674,2.6814,2.6832,2.6792,2.6921,2.6882,2.6892,2.6907,2.6919,2.6929,2.6922,2.6755,0,0,0,0,0,2.6502,2.6551,2.658,2.6652,2.6668,2.6683,2.6711,2.6711,2.6744,2.6758,2.678,2.6813,2.686,2.6891,2.6936,2.7022,2.7029,2.7061,2.707,2.7078,2.7086,2.7131,2.7145,2.7,2.7,2.7,0,0,2.654,2.6566,2.6597,2.666,2.6685,2.6735,2.6695,2.675,2.6787,2.6767,2.6836,2.6853,2.689,2.697,2.7006,2.6987,2.7128,2.7087,2.7093,2.7097,2.7139,2.7153,2.7165,2.7004,2.7004,2.7003,0,0,2.6635,2.6661,2.6722,2.6747,2.6786,2.6795,2.681,2.6845,2.6855,2.6925,2.691,2.6954,2.7035,2.7062,2.7086,2.7189,2.7175,2.7204,2.7255,2.7299,2.731,2.732,2.7355,2.7367,2.7212,2.7212,2.7212,0,2.6678,2.6753,2.6755,2.681,2.6838,2.6821,2.6882,2.6907,2.6958,2.6977,2.6955,2.7056,2.708,2.7164,2.7189,2.721,2.7226,2.7199,2.7308,2.7318,2.7328,2.7361,2.7374,2.7215,2.7215,2.7215,2.7215,0,2.6802,2.6854,2.6899,2.6948,2.6981,2.7039,2.7049,2.7082,2.7078,2.7089,2.716,2.7188,2.7237,2.7257,2.7255,2.7341,2.7328,2.7307,2.7267,2.7345,2.7375,2.7388,2.722,2.7219,2.7218,2.7217,0,0,2.6924,2.6972,2.6988,2.7009,2.705,2.709,2.7147,2.7194,2.7221,2.7257,2.7304,2.7372,2.7353,2.738,2.7381,2.7419,2.7496,2.7394,2.7394,2.741,2.759,2.7604,2.7619,2.7488,2.749,2.7492,2.7586,0,2.702,2.712,2.7123,2.7214,2.7261,2.7245,2.7294,2.7324,2.7336,2.7377,2.739,2.7438,2.741,2.7426,2.7464,2.7479,2.7532,2.7473,2.753,2.7532,2.7519,2.7635,2.7651,2.7738,2.7599,2.7601,2.7603,0,2.7146,2.7185,2.728,2.7312,2.7332,2.7376,2.7418,2.7459,2.7492,2.7497,2.7527,2.7521,2.7578,2.7538,2.7615,2.7575,2.7598,2.7609,2.7613,2.7617,2.7571,2.7641,2.7766,2.7779,2.7622,2.7621,2.7619,0,2.7223,2.7299,2.7365,2.7383,2.7423,2.7454,2.7472,2.7502,2.753,2.7567,2.7585,2.7629,2.7653,2.7687,2.7692,2.7662,2.7769,2.773,2.7775,2.7774,2.7796,2.7795,2.7926,2.7815,2.7815,2.7815,2.7815,0,2.7329,2.7387,2.7399,2.744,2.7504,2.7506,2.757,2.7585,2.7612,2.7655,2.7645,2.7685,2.7691,2.7732,2.7737,2.7799,2.7811,2.7816,2.7816,2.7816,2.7815,2.783,2.7823,2.7818,2.7818,2.7817,2.7816,0,2.7425,2.7435,2.7506,2.7537,2.7546,2.7592,2.7618,2.7656,2.7666,2.772,2.7733,2.775,2.7798,2.7807,2.7864,2.7867,2.7941,2.7936,2.7929,2.7928,2.7971,2.7966,2.8115,2.8134,2.8013,2.8015,2.8016,0,2.7491,2.7535,2.757,2.7598,2.7617,2.7662,2.7689,2.7693,2.7723,2.7762,2.7796,2.7842,2.788,2.7957,2.7974,2.8017,2.8012,2.8061,2.8018,2.8015,2.801,2.8006,2.8009,2.8069,2.807,2.8071,2.8072,0,2.7607,2.7609,2.765,2.7692,2.7725,2.7758,2.779,2.7813,2.7821,2.7854,2.7903,2.7932,2.7989,2.8035,2.8078,2.8095,2.8085,2.8085,2.8097,2.8096,2.809,2.8092,2.7949,2.8082,2.8081,2.808,2.8079,2.8079,2.7688,2.7726,2.7756,2.7801,2.7825,2.7854,2.7891,2.7905,2.7946,2.7992,2.7992,2.8045,2.8075,2.8131,2.8151,2.8192,2.8176,2.8195,2.8199,2.8203,2.8205,2.8085,2.82,2.82,2.82,2.8199,2.8199,0,2.7801,2.782,2.7861,2.7905,2.7939,2.7926,2.796,2.799,2.8036,2.8065,2.8102,2.8156,2.82,2.822,2.8264,2.8292,2.8288,2.8303,2.83,2.8304,2.8218,2.8202,2.8306,2.8306,2.8306,2.8306,2.8305,2.8305,2.7864,2.7926,2.7932,2.8006,2.8023,2.8074,2.8094,2.8121,2.8144,2.8205,2.8241,2.8254,2.8279,2.8323,2.8363,2.8367,2.8383,2.84,2.8402,2.8321,2.831,2.83,2.8285,2.8404,2.8404,2.8484,2.8485,2.8485]},{"header":{"parameterUnit":"m.s-1","parameterCategory":1,"la1":30.2991,"la2":30.254,"lo1":-89.0895,"lo2":-89.0444,"dy":0.0017,"dx":0.0017,"nx":28,"ny":28,"refTime":"2024-08-18T03:00:00:Z","depth":0,"parameterNumber":3,"parameterNumberName":"V-component_of_WINDS"},"data":[0,0,0,0,0,0,0,0,0,0,0,0,0,0,0,0,0,0,0,0,0,0,0,0,0,0,0,0,0,0,0,0,0,0,0,0,0,0,0,0,0,0,0,0,0,0,0,0,0,0,0,0,0,0,0,0,0,0,0.5676,0.5676,0,0.5696,0.5697,0.5697,0.5669,0.5668,0.5667,0.5666,0.5688,0.5689,0.5691,0,0,0,0,0,0,0,0,0,0,0,0,0,0.5611,0.5613,0.5676,0.5676,0.5676,0.5696,0.5697,0.5697,0.5669,0.5668,0.5667,0.5666,0.5687,0.5689,0.5691,0,0,0,0,0,0,0,0,0,0,0,0,0,0.5636,0.5613,0.5676,0.5665,0.5664,0.5696,0.5697,0.5697,0.5669,0.5668,0.5666,0.5665,0.5687,0.5689,0.5691,0.5735,0,0,0.5698,0.5699,0,0,0,0,0,0,0,0,0.5635,0.5639,0.5666,0.5666,0.5665,0.5679,0.5682,0.571,0.567,0.5667,0.5666,0.5664,0.5686,0.5688,0.5695,0.5736,0.5737,0.5698,0.57,0.5701,0.5701,0,0,0,0,0,0,0,0.5633,0.5638,0.5684,0.5666,0.5666,0.5659,0.5661,0.5687,0.5685,0.5667,0.5666,0.5668,0.5685,0.5693,0.5696,0.5738,0.5698,0.57,0.5702,0.5703,0.5815,0.5816,0,0,0,0,0,0,0.5633,0.5637,0.5683,0.5684,0.5646,0.5661,0.5663,0.5676,0.5685,0.5684,0.567,0.5667,0.569,0.5693,0.5696,0.5748,0.5701,0.5703,0.5704,0.5813,0.5815,0.5817,0,0,0,0,0,0,0.5632,0.5637,0.5682,0.566,0.5665,0.5664,0.5678,0.5677,0.5685,0.5686,0.5686,0.5678,0.5689,0.5693,0.5726,0.5749,0.5704,0.5706,0.5811,0.5814,0.5816,0.5853,0,0,0,0,0,0,0.563,0.5637,0.5654,0.5661,0.5666,0.5712,0.5679,0.5678,0.5689,0.5686,0.5694,0.5694,0.5688,0.5722,0.5728,0.5751,0.5708,0.5809,0.5812,0.5815,0.585,0.5856,0.5862,0,0,0,0,0,0.5628,0.5664,0.5655,0.5661,0.5688,0.5713,0.5716,0.5709,0.5691,0.5708,0.5708,0.5694,0.5745,0.5726,0.5732,0.5756,0.5808,0.5811,0.5815,0.5847,0.5855,0.5862,0,0,0,0,0,0,0.5661,0.5665,0.5655,0.5695,0.5704,0.5708,0.573,0.5718,0.5732,0.5729,0.5719,0.5721,0.5756,0.5759,0.5737,0.5799,0.5773,0.5778,0.5796,0.5803,0.5809,0.5808,0.571,0,0,0,0,0,0.5673,0.5693,0.5695,0.573,0.5735,0.5731,0.5742,0.5735,0.5744,0.5748,0.5751,0.5761,0.5779,0.5791,0.5808,0.5849,0.5851,0.5869,0.5875,0.588,0.5885,0.5906,0.5914,0.5829,0.5829,0.5829,0,0,0.5698,0.5702,0.5716,0.5737,0.5743,0.5764,0.5735,0.5759,0.5774,0.5752,0.5783,0.5785,0.5795,0.5832,0.5848,0.5836,0.5908,0.5885,0.5889,0.5891,0.5911,0.5919,0.5926,0.5831,0.5831,0.583,0,0,0.5754,0.576,0.5789,0.5795,0.5805,0.5802,0.5809,0.5815,0.5816,0.5846,0.583,0.5847,0.5879,0.5886,0.5894,0.5951,0.5939,0.5957,0.599,0.6011,0.6018,0.6024,0.6044,0.6052,0.5962,0.5962,0.5962,0,0.5785,0.5816,0.5806,0.583,0.5839,0.5819,0.5849,0.5855,0.587,0.5877,0.5862,0.59,0.5906,0.5944,0.5958,0.5965,0.5972,0.5957,0.6018,0.6023,0.6029,0.6048,0.6056,0.5964,0.5964,0.5963,0.5963,0,0.5852,0.5873,0.5896,0.591,0.5921,0.5948,0.5942,0.5955,0.5946,0.5945,0.5976,0.5981,0.5998,0.6006,0.5999,0.6043,0.6035,0.6019,0.5994,0.6039,0.6057,0.6065,0.5967,0.5966,0.5966,0.5965,0,0,0.5932,0.5938,0.5947,0.5953,0.5961,0.5977,0.6002,0.6019,0.603,0.604,0.6061,0.6087,0.6072,0.6081,0.6074,0.6092,0.6137,0.6074,0.6074,0.6086,0.6186,0.6198,0.6207,0.6128,0.6129,0.613,0.6185,0,0.5988,0.6032,0.6023,0.6066,0.6085,0.6066,0.6087,0.6095,0.6093,0.611,0.6108,0.6127,0.6106,0.6111,0.6128,0.6128,0.6157,0.6123,0.6147,0.6148,0.6146,0.6216,0.623,0.6282,0.6192,0.6193,0.6194,0,0.606,0.6073,0.6117,0.6121,0.6129,0.6149,0.6162,0.6178,0.6185,0.6183,0.6192,0.6181,0.6205,0.6179,0.6212,0.619,0.6199,0.62,0.6201,0.6204,0.6175,0.6221,0.6298,0.6306,0.6205,0.6204,0.6203,0,0.6114,0.6142,0.6172,0.6177,0.6183,0.6197,0.62,0.6205,0.6215,0.6227,0.6233,0.6248,0.6256,0.6267,0.626,0.6241,0.6294,0.6267,0.6293,0.6294,0.6307,0.6306,0.6386,0.6311,0.6311,0.6311,0.6311,0,0.6179,0.6207,0.6196,0.6215,0.6245,0.6234,0.6265,0.6265,0.627,0.6288,0.6272,0.6289,0.6278,0.6294,0.6288,0.6317,0.6321,0.632,0.6318,0.6322,0.6322,0.6328,0.6325,0.6313,0.6312,0.6312,0.6312,0,0.6245,0.6239,0.627,0.6272,0.6273,0.6296,0.6297,0.6314,0.6311,0.6334,0.6339,0.6334,0.6352,0.6345,0.6365,0.6361,0.6397,0.6391,0.6395,0.6394,0.642,0.6418,0.6508,0.6519,0.6436,0.6437,0.6438,0,0.6287,0.6308,0.6312,0.6322,0.6326,0.6344,0.6354,0.6343,0.6353,0.6362,0.6378,0.6395,0.6408,0.6437,0.6436,0.645,0.6444,0.6474,0.6446,0.6449,0.6445,0.6444,0.6446,0.648,0.6481,0.6482,0.6483,0,0.6362,0.6358,0.6372,0.6386,0.6397,0.6407,0.6416,0.6426,0.6415,0.6428,0.6446,0.6456,0.6475,0.6491,0.6504,0.6507,0.6493,0.6491,0.6498,0.6503,0.6505,0.6504,0.6411,0.649,0.6489,0.6489,0.6488,0.6488,0.6418,0.6436,0.644,0.6457,0.6462,0.647,0.6486,0.6484,0.6499,0.6513,0.6506,0.6527,0.6532,0.6548,0.6552,0.6568,0.6556,0.6566,0.6569,0.6572,0.6575,0.6501,0.657,0.657,0.657,0.6569,0.6569,0,0.6493,0.6494,0.6509,0.6521,0.6534,0.6519,0.6527,0.6539,0.6558,0.6563,0.6576,0.6596,0.6612,0.6611,0.6625,0.6638,0.6632,0.6642,0.6641,0.6642,0.6585,0.6578,0.6646,0.6646,0.6646,0.6646,0.6646,0.6646,0.6533,0.6562,0.6558,0.6588,0.6589,0.661,0.6615,0.6623,0.6627,0.665,0.6663,0.6662,0.6665,0.6679,0.6692,0.6691,0.6698,0.671,0.6707,0.6654,0.6646,0.6639,0.6632,0.6711,0.6711,0.6763,0.6764,0.6764]}]]